sat.trackr.live / text

‹ back to catalog

GEESAT-6 10

NORAD 65722 · 2025-214L

PAYLOAD ACTIVE UNKNOWN

§ Identity

Operator
Country
PRC
Launch date
2025-09-24
Launch site
YSLA
Launch vehicle
Mass (kg)
RCS (m²)

External: N2YO · Heavens-Above · Gunter

§ Orbital elements

Epoch: 2026-05-25T03:46:48.686016Z

Period
97.08 min
Inclination
49.9910°
Eccentricity
0.0011658
Mean motion
14.83278115 rev/d
Perigee alt
610.8 km
Apogee alt
627.2 km
Semi-major
6,997.1 km
B*
1.9590e-4
RAAN
55.4109°
Arg perigee
144.1575°
Mean anomaly
216.0147°
Rev number
3,608

§ Raw data

GEESAT-6 101 65722U 25214L   26145.15750794  .00001394  00000+0  19590-3 0  99952 65722  49.9910  55.4109 0011658 144.1575 216.0147 14.83278115 36086

JSON: /api/v1/satellites/65722 · /tle

For live sub-satellite position, see the globe view (requires WebGL).

§ Visibility from observer

Set your observer location to see the next 7 days of passes ≥ 10°. The values pass through the URL so the page stays shareable.

No JS? Fill the form by hand. The geolocation button needs JavaScript.